Miscellaneous Local Product
Issued by NWS North Platte, NE

Home | Current Version | Previous Version | Text Only | Print | Product List | Glossary On
Versions: 1 2 3 4 5 6 7 8 9 10 11 12 13 14 15 16 17 18 19 20 21 22 23 24 25 26 27 28 29 30 31 32 33 34 35 36 37 38 39 40 41 42 43 44 45 46 47 48 49 50
000
AXUS43 KLBF 231010
MISLBF


WESTERN AND NORTH CENTRAL NEBRASKA HOURLY WEATHER ROUNDUP
NATIONAL WEATHER SERVICE NORTH PLATTE NE
500 AM CDT SUN APR 23 2017

NOTE: "FAIR" INDICATES FEW OR NO CLOUDS BELOW 12,000 FEET WITH NO
SIGNIFICANT WEATHER AND/OR OBSTRUCTIONS TO VISIBILITY.

NOTE: STATIONS NOT REPORTING VARIABLES SUCH AS SKY/WEATHER OR
PRESSURE ARE PROVIDED BY RAWS AND APRS NETWORKS AND ARE NOT UNDER
NATIONAL WEATHER SERVICE QUALITY CONTROL.

...OBSERVATIONS IN AND NEAR THE EASTERN PANHANDLE OF NEBRASKA...

CITY           SKY/WX    TMP DP  RH WIND       PRES   REMARKS
PINE RIDGE     CLEAR     45  31  58 S18G28    29.99F
CHADRON        CLOUDY    49  29  46 S20       29.96F
ALLIANCE       CLOUDY    36  29  75 S10       30.03F WCI  28
SIDNEY         CLOUDY    32  29  88 S10       30.07F WCI  24
CRESCENT LAKE    N/A     41  33  73 S9G16       N/A
$$

...OBSERVATIONS IN NORTHERN NEBRASKA AND FAR SOUTHERN SOUTH DAKOTA...

CITY           SKY/WX    TMP DP  RH WIND       PRES   REMARKS
WINNER         FAIR      44  32  62 S14       30.05F
VALENTINE      CLEAR     44  28  53 SW14      30.06F
THEDFORD       CLEAR     37  29  73 SW3       30.12F
AINSWORTH      CLEAR     42  32  68 S12       30.09F
O`NEILL        CLEAR     40  31  69 S6        30.12F
ORD            CLEAR     38  28  67 SW8       30.14F WCI  32
BROKEN BOW     CLEAR     31  24  75 CALM      30.13F
VALENTINE NWR    N/A     39  27  62 S8          N/A  WCI  33
HALSEY           N/A     40  27  59 S6          N/A
BUTTE            N/A     44  33  66 S5G12       N/A
CHAMBERS         N/A     41  28  60 S3          N/A
EWING            N/A     43  32  65 S3          N/A
$$

...OBSERVATIONS IN SOUTHWEST NEBRASKA AND FAR NORTHEAST COLORADO...

CITY           SKY/WX    TMP DP  RH WIND       PRES   REMARKS
HOLYOKE        FAIR      39  34  81 S10       30.11F WCI  32
IMPERIAL       CLOUDY    38  31  76 S10       30.13F WCI  31
OGALLALA       CLOUDY    37  31  79 SW7       30.12S WCI  31
NORTH PLATTE   CLOUDY    35  28  75 S7        30.14F WCI  29
MCCOOK         CLOUDY    35  29  78 W7        30.17R WCI  29
LEXINGTON      CLEAR     31  25  77 CALM      30.17S
STAPLETON        N/A     36  29  74 CALM        N/A
GOTHENBURG       N/A     44  26  49 CALM        N/A
CALLAWAY         N/A     33  26  77 S6          N/A  WCI  27
$$

...OBSERVATIONS IN CENTRAL LINCOLN COUNTY AREA...

CITY           SKY/WX    TMP DP  RH WIND       PRES   REMARKS
N.P. AIRPORT   CLOUDY    35  28  75 S7        30.14F WCI  29
N.P. DOWNTOWN    N/A     40  31  71 CALM        N/A
N.P. HILLCREST   N/A     39  30  71 S3          N/A
$$

...SOME OBSERVATIONS FROM AROUND THE REGION...

CITY           SKY/WX    TMP DP  RH WIND       PRES   REMARKS
DENVER         CLOUDY    43  30  60 S18       30.02F
LIMON          CLEAR     37  32  82 S13       30.12F WCI  29
ASPEN          CLOUDY    28  21  75 S3        30.15F
LARAMIE        CLOUDY    32  26  78 S7        30.04F WCI  26
CASPER         CLOUDY    43  30  60 SW13      29.93F
CHEYENNE       CLOUDY    34  29  82 CALM      30.04F
SCOTTSBLUFF    CLOUDY    46  31  55 S8        30.02F
GRAND ISLAND   CLEAR     40  28  62 SW3       30.18S
OMAHA          CLEAR     43  35  73 CALM      30.17S
SIOUX FALLS    CLEAR     50  35  56 SW8       30.09F
PIERRE         CLEAR     47  31  53 SW10      29.97F
RAPID CITY     PTCLDY    45  32  60 S10       29.93F
BISMARCK       CLOUDY    35  31  85 E18G26    30.08F WCI  24
KANSAS CITY    CLEAR     46  30  53 N5        30.16F
HILL CITY      CLEAR     35  31  85 W5        30.19F WCI  31
WICHITA        CLEAR     40  36  86 NW5       30.19S
DODGE CITY     CLEAR     36  30  79 SW6       30.22F WCI  31
OKLAHOMA CITY  CLEAR     44  39  82 N8        30.16S
DALLAS         CLEAR     50  42  74 N9        30.13R
AMARILLO       CLEAR     42  32  67 SW5       30.26F
$$




USA.gov is the U.S. government's official web portal to all federal, state and local government web resources and services.